TimeCST,TemperatureF,Dew PointF,Humidity,Sea Level PressureIn,VisibilityMPH,Wind Direction,Wind SpeedMPH,Gust SpeedMPH,PrecipitationIn,Events,Conditions,WindDirDegrees,DateUTC
12:15 AM,28.4,19.4,69,29.99,10.0,WNW,11.5,17.3,N/A,,Scattered Clouds,300,2013-03-05 06:15:00
12:35 AM,28.4,19.4,69,29.99,10.0,WNW,10.4,-,N/A,,Mostly Cloudy,290,2013-03-05 06:35:00
12:55 AM,28.4,21.2,74,29.99,10.0,WNW,10.4,19.6,N/A,Snow,Light Snow,300,2013-03-05 06:55:00
1:15 AM,28.4,21.2,74,29.99,10.0,WNW,12.7,17.3,N/A,,Overcast,290,2013-03-05 07:15:00
1:35 AM,26.6,21.2,80,30.00,4.0,WNW,13.8,-,N/A,Snow,Light Snow,300,2013-03-05 07:35:00
1:55 AM,26.6,19.4,74,30.00,10.0,NW,12.7,-,N/A,,Overcast,310,2013-03-05 07:55:00
2:15 AM,26.6,19.4,74,30.00,10.0,NW,12.7,20.7,N/A,Snow,Light Snow,310,2013-03-05 08:15:00
2:35 AM,26.6,21.2,80,29.99,7.0,NW,16.1,20.7,N/A,Snow,Light Snow,310,2013-03-05 08:35:00
2:55 AM,26.6,19.4,74,29.99,7.0,NW,11.5,-,N/A,Snow,Light Snow,310,2013-03-05 08:55:00
3:15 AM,26.6,19.4,74,29.99,7.0,WNW,11.5,18.4,N/A,Snow,Light Snow,300,2013-03-05 09:15:00
3:35 AM,26.6,17.6,69,29.99,10.0,WNW,12.7,-,N/A,,Overcast,300,2013-03-05 09:35:00
3:55 AM,24.8,17.6,74,29.98,10.0,WNW,15.0,20.7,N/A,,Overcast,290,2013-03-05 09:55:00
4:15 AM,24.8,19.4,80,29.98,10.0,West,12.7,20.7,N/A,Snow,Light Snow,280,2013-03-05 10:15:00
4:35 AM,24.8,19.4,80,29.98,5.0,WNW,11.5,19.6,N/A,Snow,Light Snow,290,2013-03-05 10:35:00
4:55 AM,24.8,19.4,80,29.98,10.0,West,10.4,16.1,N/A,,Overcast,280,2013-03-05 10:55:00
5:15 AM,24.8,19.4,80,29.98,10.0,West,12.7,-,N/A,,Overcast,280,2013-03-05 11:15:00
5:35 AM,24.8,19.4,80,29.98,10.0,West,13.8,19.6,N/A,,Overcast,280,2013-03-05 11:35:00
5:55 AM,26.6,21.2,80,29.97,10.0,West,15.0,20.7,N/A,,Overcast,280,2013-03-05 11:55:00
6:15 AM,26.6,21.2,80,29.98,7.0,West,13.8,19.6,N/A,Snow,Light Snow,280,2013-03-05 12:15:00
6:35 AM,26.6,21.2,80,29.98,10.0,WNW,13.8,18.4,N/A,,Overcast,290,2013-03-05 12:35:00
7:15 AM,26.6,23.0,86,29.99,10.0,NW,16.1,26.5,N/A,,Overcast,310,2013-03-05 13:15:00
7:35 AM,28.4,23.0,80,30.00,4.0,NW,18.4,26.5,N/A,Snow,Light Snow,320,2013-03-05 13:35:00
7:55 AM,26.6,23.0,86,30.01,5.0,NNW,19.6,25.3,N/A,Snow,Light Snow,330,2013-03-05 13:55:00
8:15 AM,28.4,23.0,80,30.02,4.0,NNW,17.3,27.6,N/A,Snow,Light Snow,330,2013-03-05 14:15:00
8:35 AM,26.6,24.8,93,30.04,1.2,NW,21.9,31.1,N/A,Snow,Light Snow,320,2013-03-05 14:35:00
8:55 AM,26.6,23.0,86,30.04,1.0,NNW,19.6,28.8,N/A,Snow,Light Snow,330,2013-03-05 14:55:00
9:15 AM,26.6,23.0,86,30.05,1.0,NW,20.7,29.9,N/A,Snow,Light Snow,320,2013-03-05 15:15:00
9:35 AM,26.6,23.0,86,30.06,1.2,NNW,23.0,31.1,N/A,Snow,Light Snow,330,2013-03-05 15:35:00
9:55 AM,26.6,23.0,86,30.07,1.0,NNW,21.9,33.4,N/A,Snow,Light Snow,340,2013-03-05 15:55:00
10:15 AM,26.6,21.2,80,30.09,1.5,NNW,17.3,29.9,N/A,Snow,Light Snow,340,2013-03-05 16:15:00
10:35 AM,26.6,21.2,80,30.10,4.0,NNW,24.2,29.9,N/A,Snow,Light Snow,340,2013-03-05 16:35:00
10:55 AM,26.6,19.4,74,30.11,5.0,NNW,21.9,28.8,N/A,Snow,Light Snow,340,2013-03-05 16:55:00
11:15 AM,26.6,19.4,74,30.12,10.0,North,23.0,32.2,N/A,,Overcast,350,2013-03-05 17:15:00
11:35 AM,26.6,19.4,74,30.13,5.0,NNW,19.6,26.5,N/A,,Haze,340,2013-03-05 17:35:00
11:55 AM,26.6,19.4,74,30.14,7.0,North,18.4,26.5,N/A,Snow,Light Snow,350,2013-03-05 17:55:00
12:15 PM,28.4,19.4,69,30.15,10.0,NNW,23.0,28.8,N/A,,Overcast,330,2013-03-05 18:15:00
12:35 PM,28.4,21.2,74,30.16,10.0,North,20.7,26.5,N/A,,Overcast,350,2013-03-05 18:35:00
12:55 PM,26.6,19.4,74,30.17,10.0,NNW,21.9,26.5,N/A,,Overcast,340,2013-03-05 18:55:00
1:15 PM,28.4,19.4,69,30.17,10.0,NNW,19.6,28.8,N/A,,Overcast,340,2013-03-05 19:15:00
1:35 PM,26.6,19.4,74,30.18,5.0,NNW,23.0,28.8,N/A,Snow,Light Snow,330,2013-03-05 19:35:00
1:55 PM,26.6,19.4,74,30.18,5.0,NNW,19.6,28.8,N/A,Snow,Light Snow,330,2013-03-05 19:55:00
2:15 PM,26.6,21.2,80,30.19,5.0,NNW,18.4,29.9,N/A,Snow,Light Snow,330,2013-03-05 20:15:00
2:35 PM,26.6,21.2,80,30.19,4.0,NNW,18.4,28.8,N/A,Snow,Light Snow,330,2013-03-05 20:35:00
3:15 PM,26.6,19.4,74,30.20,10.0,NNW,24.2,29.9,N/A,,Overcast,340,2013-03-05 21:15:00
3:35 PM,26.6,17.6,69,30.21,10.0,North,19.6,28.8,N/A,,Overcast,350,2013-03-05 21:35:00
3:55 PM,26.6,17.6,69,30.22,10.0,NNW,17.3,24.2,N/A,,Overcast,340,2013-03-05 21:55:00
4:15 PM,26.6,17.6,69,30.24,10.0,NNW,20.7,28.8,N/A,,Overcast,340,2013-03-05 22:15:00
4:35 PM,26.6,19.4,74,30.25,10.0,North,16.1,23.0,N/A,,Overcast,360,2013-03-05 22:35:00
4:55 PM,26.6,19.4,74,30.26,10.0,NNW,15.0,20.7,N/A,Snow,Light Snow,340,2013-03-05 22:55:00
5:15 PM,26.6,19.4,74,30.26,7.0,NNW,16.1,21.9,N/A,Snow,Light Snow,340,2013-03-05 23:15:00
5:35 PM,26.6,19.4,74,30.28,7.0,NNW,17.3,24.2,N/A,Snow,Light Snow,330,2013-03-05 23:35:00
5:55 PM,26.6,17.6,69,30.28,10.0,NNW,21.9,27.6,N/A,,Overcast,330,2013-03-05 23:55:00
6:15 PM,24.8,17.6,74,30.29,10.0,NNW,16.1,26.5,N/A,,Overcast,340,2013-03-06 00:15:00
6:35 PM,24.8,17.6,74,30.29,10.0,NNW,16.1,21.9,N/A,,Overcast,340,2013-03-06 00:35:00
6:55 PM,24.8,17.6,74,30.30,10.0,North,15.0,-,N/A,,Overcast,350,2013-03-06 00:55:00
7:15 PM,24.8,17.6,74,30.31,10.0,North,12.7,17.3,N/A,,Overcast,350,2013-03-06 01:15:00
7:35 PM,24.8,17.6,74,30.31,10.0,NNW,15.0,20.7,N/A,,Overcast,340,2013-03-06 01:35:00
7:55 PM,24.8,17.6,74,30.32,10.0,North,10.4,-,N/A,,Overcast,350,2013-03-06 01:55:00
8:15 PM,24.8,15.8,69,30.32,10.0,North,18.4,23.0,N/A,,Overcast,360,2013-03-06 02:15:00
8:35 PM,23.0,15.8,74,30.32,10.0,North,18.4,24.2,N/A,,Overcast,350,2013-03-06 02:35:00
8:55 PM,23.0,15.8,74,30.33,10.0,NNW,13.8,24.2,N/A,,Overcast,340,2013-03-06 02:55:00
9:15 PM,23.0,15.8,74,30.33,10.0,NNW,12.7,-,N/A,,Overcast,340,2013-03-06 03:15:00
9:35 PM,23.0,15.8,74,30.33,10.0,NNW,11.5,17.3,N/A,,Overcast,340,2013-03-06 03:35:00
9:55 PM,23.0,15.8,74,30.34,10.0,NNW,11.5,-,N/A,,Overcast,340,2013-03-06 03:55:00
10:15 PM,23.0,17.6,80,30.35,10.0,NNW,10.4,-,N/A,,Overcast,340,2013-03-06 04:15:00
10:35 PM,23.0,15.8,74,30.36,10.0,NNW,10.4,16.1,N/A,,Overcast,330,2013-03-06 04:35:00
10:55 PM,23.0,17.6,80,30.35,10.0,NNW,11.5,-,N/A,,Overcast,340,2013-03-06 04:55:00
11:15 PM,23.0,15.8,74,30.35,10.0,North,11.5,-,N/A,,Overcast,350,2013-03-06 05:15:00
11:35 PM,23.0,15.8,74,30.36,10.0,North,11.5,16.1,N/A,,Overcast,10,2013-03-06 05:35:00
11:55 PM,21.2,15.8,80,30.37,10.0,North,9.2,-,N/A,,Overcast,350,2013-03-06 05:55:00